User: anonymous   Login
Location: Caltech
(34.1382°N, 118.1253°W)
Time: 18:52:54
(UTC-08:00)
Language:

OAO 2 Rocket - Orbit

View from above orbital plane
View from above orbital plane
View from above satellite
View from above satellite

Ground track
Ground track

The orbit data is extracted from the following two-line orbital elements,

1 03598U 68110B   14325.21699275  .00000648  00000-0  15418-3 0  7669
2 03598 034.9930 238.0727 0050307 174.0239 345.9455 14.53802306429726
Epoch (UTC): 21 November 2014 05:12:28
Eccentricity: 0.0050307
inclination: 34.9930°
perigee height: 677 km
apogee height: 749 km
right ascension of ascending node: 238.0727°
argument of perigee: 174.0239°
revolutions per day: 14.53802306
mean anomaly at epoch: 345.9455°
orbit number at epoch: 42972

The dashed part of the orbit path shows where the satellite is in the earth's shadow,  

DLR